Laurinburg-Maxton, NC

3:12 PM EDT on June 28, 2017 (GMT -0400)
Laurinburg-Maxton

Weather History for KMEB - August, 2013

Change the Weather History Date:

Wednesday, August 28, 2013

  Actual Average (KHFF) Record (KHFF)
Temperature  
Mean Temperature 76 °F -  
Max Temperature 88 °F 84 °F 95 °F (2014)
Min Temperature 66 °F 68 °F 61 °F (2014)
Cooling Degree Days 12    
Growing Degree Days 26 (Base 50)    
Moisture  
Dew Point 71 °F    
Average Humidity 83    
Maximum Humidity 100    
Minimum Humidity 57    
Precipitation  
Precipitation 0.00 in - - ()
Sea Level Pressure  
Sea Level Pressure 29.97 in    
Wind  
Wind Speed 4 mph (WSW)    
Max Wind Speed 9 mph    
Max Gust Speed -    
Visibility 6 miles    
Events      
Averages and records for this station are not official NWS values.
T = Trace of Precipitation, MM = Missing Value Source: NWS Daily Summary

Daily Weather History Graph

Daily Weather History Graph

Search for Another Location

Airport or City:

Trip Planner

Search our weather history database for the weather conditions in past years. The results will help you decide how hot, cold, wet, or windy it might be!

Date:

Astronomy

Aug. 28, 2013 Rise Set
Actual Time 6:47 AM EDT 7:49 PM EDT
Civil Twilight 6:21 AM EDT 8:14 PM EDT
Nautical Twilight 5:50 AM EDT 8:45 PM EDT
Astronomical Twilight 5:18 AM EDT 9:17 PM EDT
Moon 12:00 AM EDT 2:18 PM EDT
Length of Visible Light 13h 53m
Length of Day
13h 01m
Waning Gibbous, 47% of the Moon is Illuminated
Aug 28
Waning Gibbous
Sep 5
New
Sep 12
First Quarter
Sep 19
Full
Sep 26
Last Quarter

Hourly Weather History & Observations

Time (EDT) Temp. Heat Index Dew Point Humidity Pressure Visibility Wind Dir Wind Speed Gust Speed Precip Events Conditions
12:52 AM 71.1 °F - 69.1 °F 93% 30.01 in 9.0 mi SSW 4.6 mph - N/A   Clear
1:52 AM 71.1 °F - 69.1 °F 93% 29.99 in 8.0 mi SW 3.5 mph - N/A   Clear
2:52 AM 70.0 °F - 69.1 °F 97% 29.98 in 8.0 mi SW 3.5 mph - N/A   Clear
3:52 AM 68.0 °F - 68.0 °F 100% 29.98 in 5.0 mi WSW 3.5 mph - N/A   Clear
4:52 AM 69.1 °F - 68.0 °F 96% 29.96 in 5.0 mi SW 4.6 mph - N/A   Clear
5:52 AM 68.0 °F - 66.9 °F 96% 29.97 in 5.0 mi SW 3.5 mph - N/A   Clear
6:52 AM 68.0 °F - 66.9 °F 96% 29.99 in 3.0 mi WSW 4.6 mph - N/A   Clear
7:05 AM 66.2 °F - 66.2 °F 100% 29.99 in 2.5 mi WSW 3.5 mph - N/A   Clear
7:44 AM 69.8 °F - 68.0 °F 94% 30.00 in 3.0 mi WSW 3.5 mph - N/A   Clear
7:52 AM 69.1 °F - 69.1 °F 100% 30.00 in 3.0 mi Calm Calm - N/A   Clear
8:52 AM 73.0 °F - 70.0 °F 90% 30.01 in 5.0 mi WSW 4.6 mph - N/A   Clear
9:52 AM 78.1 °F - 70.0 °F 76% 30.00 in 8.0 mi WNW 4.6 mph - N/A   Clear
10:52 AM 81.0 °F 84.9 °F 71.1 °F 72% 30.01 in 7.0 mi Calm Calm - N/A   Clear
11:52 AM 84.0 °F 89.0 °F 71.1 °F 65% 30.00 in 8.0 mi Calm Calm - N/A   Clear
12:52 PM 86.0 °F 91.5 °F 71.1 °F 61% 29.99 in 8.0 mi Calm Calm - N/A   Clear
1:52 PM 87.1 °F 92.0 °F 70.0 °F 57% 29.98 in 8.0 mi Variable 4.6 mph - N/A   Clear
2:52 PM 87.1 °F 92.8 °F 71.1 °F 59% 29.96 in 8.0 mi SW 4.6 mph - N/A   Clear
3:52 PM 87.1 °F 93.6 °F 72.0 °F 61% 29.95 in 8.0 mi West 9.2 mph - N/A   Partly Cloudy
4:52 PM 86.0 °F 92.2 °F 72.0 °F 63% 29.94 in 8.0 mi West 5.8 mph - N/A   Clear
5:52 PM 84.9 °F 90.7 °F 72.0 °F 65% 29.93 in 8.0 mi WSW 3.5 mph - N/A   Clear
6:52 PM 82.9 °F 89.4 °F 73.9 °F 74% 29.93 in 7.0 mi Calm Calm - N/A   Clear
7:52 PM 81.0 °F 86.2 °F 73.9 °F 79% 29.94 in 6.0 mi Calm Calm - N/A   Haze
8:52 PM 78.1 °F - 75.0 °F 90% 29.93 in 6.0 mi SW 3.5 mph - N/A   Clear
9:52 PM 77.0 °F - 75.0 °F 94% 29.93 in 5.0 mi SW 5.8 mph - N/A   Clear
10:52 PM 75.0 °F - 73.0 °F 94% 29.94 in 5.0 mi WSW 4.6 mph - N/A   Clear
11:52 PM 75.0 °F - 73.0 °F 94% 29.93 in 5.0 mi WSW 5.8 mph - N/A   Partly Cloudy